This demonstration page uses our WeatherBlox Daily Observations layout. Learn more.

Left ArrowRight Arrow

Hourly Observations for January 26, 2021

Temp ( °F °C ) Dew Point ( °F °C ) Humidity (%) Winds ( mph kmh ) Pressure ( in mb ) Visibility ( mi km ) Precip ( " mm )
12:53 am 00:53 Partly Cloudy 10 -12.2 6 -14.4 84 84 E 14 22 30.04 1017 10 16 0.00 0.00
1:53 am 01:53 Clear 10 -12.2 6 -14.4 84 84 E 14 22 30.04 1017 10 16 0.00 0.00
2:53 am 02:53 Mostly Clear 10 -12.2 6 -14.4 84 84 E 13 20 30.03 1017 10 16 0.00 0.00
3:53 am 03:53 Clear 10 -12.2 5 -15 80 80 E 13 20 30.02 1017 10 16 0.00 0.00
4:53 am 04:53 Mostly Clear 10 -12.2 5 -15 80 80 E 13 20 30.01 1016 10 16 0.00 0.00
5:53 am 05:53 Clear 9 -12.8 5 -15 84 84 ENE 9 15 30.02 1017 10 16 0.00 0.00
6:53 am 06:53 Clear 9 -12.8 5 -15 84 84 ENE 7 11 30.03 1017 10 16 0.00 0.00
7:53 am 07:53 Cloudy 9 -12.8 5 -15 84 84 ENE 7 11 30.03 1017 10 16 0.00 0.00
8:53 am 08:53 Mostly Sunny 10 -12.2 5 -15 80 80 ENE 10 17 30.03 1017 10 16 0.00 0.00
9:53 am 09:53 Sunny 12 -11.1 6 -14.4 77 77 ENE 13 20 30.03 1017 10 16 0.00 0.00
10:53 am 10:53 Sunny 16 -8.9 8 -13.3 71 71 ENE 12 19 30.01 1016 10 16 0.00 0.00
11:53 am 11:53 Sunny 20 -6.7 10 -12.2 65 65 ENE 21 33 29.97 1015 10 16 0.00 0.00
12:53 pm 12:53 Sunny 23 -5 13 -10.6 65 65 ENE 22 35 29.94 1014 10 16 0.00 0.00
1:53 pm 13:53 Sunny 28 -2.2 13 -10.6 53 53 E 8 13 29.93 1014 10 16 0.00 0.00
2:53 pm 14:53 Sunny 27 -2.8 11 -11.7 51 51 SE 5 7 29.93 1014 10 16 0.00 0.00
3:35 pm 15:35 Sunny 26 -3.3 13 -10.6 57 57 E 17 28 29.96 1014 10 16 0.00 0.00
3:53 pm 15:53 Sunny 27 -2.8 11 -11.7 51 51 S 8 13 29.94 1014 10 16 0.00 0.00
4:53 pm 16:53 Sunny 22 -5.6 12 -11.1 66 66 ESE 14 22 29.97 1015 10 16 0.00 0.00
5:53 pm 17:53 Clear 17 -8.3 10 -12.2 74 74 E 16 26 29.98 1015 10 16 0.00 0.00
6:53 pm 18:53 Clear 15 -9.4 8 -13.3 74 74 E 16 26 29.99 1016 10 16 0.00 0.00
7:53 pm 19:53 Clear 13 -10.6 8 -13.3 81 81 ENE 17 28 29.99 1016 10 16 0.00 0.00
8:53 pm 20:53 Clear 11 -11.7 7 -13.9 84 84 E 16 26 30.00 1016 10 16 0.00 0.00
9:53 pm 21:53 Clear 10 -12.2 6 -14.4 84 84 ENE 17 28 30.00 1016 10 16 0.00 0.00
10:53 pm 22:53 Clear 10 -12.2 6 -14.4 84 84 E 15 24 30.00 1016 10 16 0.00 0.00
11:53 pm 23:53 Clear 10 -12.2 6 -14.4 84 84 ENE 13 20 30.00 1016 10 16 0.00 0.00

Powered by AerisWeather